Location: Białystok
(53.1343°N, 23.1544°E)
Time: 07:00:42
(UTC+01:00)

ISS - Pass Details

Date: 30 January 2019
Orbit: 403 x 411 km, 51.6° (Epoch: 23 February)

Event Time Altitude Azimuth Distance (km) Brightness Sun altitude
Rises 17:24:20 0° 251° (WSW) 2,331 2.2 -11.6°
Reaches altitude 10° 17:26:26 10° 247° (WSW) 1,474 0.5 -11.9°
Maximum altitude 17:29:41 57° 168° (SSE) 489 -3.5 -12.4°
Enters shadow 17:31:37 22° 95° (E) 966 -2.5 -12.7°
